QPF
0.00 0.00 0.00 0.00 0.00 0.00 0.00 0.00 0.00 0.00 0.00 0.00 0.00 0.00 0.00 0.00 0.00 0.00 0.00 0.00 0.00 0.00 0.00 0.00 0.00 0.00 0.00 0.00 0.00 0.00 0.00 0.00 0.00 0.00 0.00 0.00 0.00 0.00 0.00 0.00 0.00 0.00 0.00 0.00
0.00 0.00 0.00 0.00 0.00 0.00 0.00 0.00 0.00 0.00 0.00 0.00 0.00 0.00 0.00 0.00 0.00 0.00 0.00 0.00 0.00 0.00 0.00 0.00 0.00 0.00 0.00 0.00 0.00 0.00 0.00 0.00 0.00 0.00 0.00 0.00 0.00 0.00 0.00 0.00 0.00 0.00 0.00 0.00
0.00 0.00 0.00 0.00 0.00 0.00 0.00 0.00 0.00 0.00 0.00 0.00 0.00 0.00 0.00 0.00 0.00 0.00 0.00 0.00 0.00 0.00 0.00 0.00 0.00 0.00 0.00 0.00 0.00 0.00 0.00 0.00 0.00 0.00 0.00 0.00 0.00 0.00 0.00 0.00 0.00 0.00 0.00 0.00
0.00 0.00 0.00 0.00 0.00 0.00 0.00 0.00 0.00 0.00 0.00 0.00 0.00 0.00 0.00 0.00 0.00 0.00 0.00 0.00 0.00 0.00 0.00 0.00 0.00 0.00 0.00 0.00 0.00 0.00 0.00 0.00 0.00 0.00 0.00 0.00 0.00 0.00 0.00 0.00 0.00 0.00 0.00 0.00
0.00 0.00 0.00 0.00 0.00 0.00 0.00 0.00 0.00 0.00 0.00 0.00 0.00 0.00 0.00 0.00 0.00 0.00 0.00 0.00 0.00 0.00 0.00 0.00 0.00 0.00 0.00 0.00 0.00 0.00 0.00 0.00 0.00 0.00 0.00 0.00 0.00 0.00 0.00 0.00 0.00 0.00 0.00 0.00
0.00 0.00 0.00 0.00 0.00 0.00 0.00 0.00 0.00 0.00 0.00 0.00 0.00 0.00 0.00 0.00 0.00 0.00 0.00 0.00 0.00 0.00 0.00 0.00 0.00 0.00 0.00 0.00 0.00 0.00 0.00 0.00 0.00 0.00 0.00 0.00 0.00 0.00 0.00 0.00 0.00 0.00 0.00 0.00
0.00 0.00 0.00 0.00 0.00 0.00 0.00 0.00 0.00 0.00 0.00 0.00 0.00 0.00 0.00 0.00 0.00 0.00 0.00 0.00 0.00 0.00 0.00 0.00 0.00 0.00 0.00 0.00 0.00 0.00 0.00 0.00 0.00 0.00 0.00 0.00 0.00 0.00 0.00 0.00 0.00 0.00 0.00 0.00
0.00 0.00 0.00 0.00 0.00 0.00 0.00 0.00 0.00 0.00 0.00 0.00 0.00 0.00 0.00 0.00 0.00 0.00 0.00 0.00 0.00 0.00 0.00 0.00 0.00 0.00 0.00 0.00 0.00 0.00 0.00 0.00 0.00 0.00 0.00 0.00 0.00 0.00 0.00 0.00 0.00 0.00 0.00 0.00
0.00 0.00 0.00 0.00 0.00 0.00 0.00 0.00 0.00 0.00 0.00 0.00 0.00 0.00 0.00 0.00 0.00 0.00 0.00 0.00 0.00 0.00 0.00 0.00 0.00 0.00 0.00 0.00 0.00 0.00 0.00 0.00 0.00 0.00 0.00 0.00 0.00 0.00 0.00 0.00 0.00 0.00 0.00 0.00
0.00 0.00 0.00 0.00 0.00 0.00 0.00 0.00 0.00 0.00 0.00 0.00 0.00 0.00 0.00 0.00 0.00 0.00 0.00 0.00 0.00 0.00 0.00 0.00 0.00 0.00 0.00 0.00 0.00 0.00 0.00 0.00 0.00 0.00 0.00 0.00 0.00 0.00 0.00 0.00 0.00 0.00 0.00 0.00
0.00 0.00 0.00 0.00 0.00 0.00 0.00 0.00 0.00 0.00 0.00 0.00 0.00 0.00 0.00 0.00 0.00 0.00 0.00 0.00 0.00 0.00 0.00 0.00 0.00 0.00 0.00 0.00 0.00 0.00 0.00 0.00 0.00 0.00 0.00 0.00 0.00 0.00 0.00 0.00 0.00 0.00 0.00 0.00
0.00 0.00 0.00 0.00 0.00 0.00 0.00 0.00 0.00 0.00 0.00 0.00 0.00 0.00 0.00 0.00 0.00 0.00 0.00 0.00 0.00 0.00 0.00 0.00 0.00 0.00 0.00 0.00 0.00 0.00 0.00 0.00 0.00 0.00 0.00 0.00 0.00 0.00 0.00 0.00 0.00 0.00 0.00 0.00
0.00 0.00 0.00 0.00 0.00 0.00 0.00 0.00 0.00 0.00 0.00 0.00 0.00 0.00 0.00 0.00 0.00 0.00 0.00 0.00 0.00 0.00 0.00 0.00 0.00 0.00 0.00 0.00 0.00 0.00 0.00 0.00 0.00 0.00 0.00 0.00 0.00 0.00 0.00 0.00 0.00 0.00 0.00 0.00
0.00 0.00 0.00 0.00 0.00 0.00 0.00 0.00 0.00 0.00 0.00 0.00 0.00 0.00 0.00 0.00 0.00 0.00 0.00 0.00 0.00 0.00 0.00 0.00 0.00 0.00 0.00 0.00 0.00 0.00 0.00 0.00 0.00 0.00 0.00 0.00 0.00 0.00 0.00 0.00 0.00 0.00 0.00 0.00
0.00 0.00 0.00 0.00 0.00 0.00 0.00 0.00 0.00 0.00 0.00 0.00 0.00 0.00 0.00 0.00 0.00 0.00 0.00 0.00 0.00 0.00 0.00 0.00 0.00 0.00 0.00 0.00 0.00 0.00 0.00 0.00 0.00 0.00 0.00 0.00 0.00 0.00 0.00 0.00 0.00 0.00 0.00 0.00
0.00 0.00 0.00 0.00 0.00 0.00 0.00 0.00 0.00 0.00 0.00 0.00 0.00 0.00 0.00 0.00 0.00 0.00 0.00 0.00 0.00 0.00 0.00 0.00 0.00 0.00 0.00 0.00 0.00 0.00 0.00 0.00 0.00 0.00 0.00 0.00 0.00 0.00 0.00 0.00 0.00 0.00 0.00 0.00
0.00 0.00 0.00 0.00 0.00 0.00 0.00 0.00 0.00 0.00 0.00 0.00 0.00 0.00 0.00 0.00 0.00 0.00 0.00 0.00 0.00 0.00 0.00 0.00 0.00 0.00 0.00 0.00 0.00 0.00 0.00 0.00 0.00 0.00 0.00 0.00 0.00 0.00 0.00 0.00 0.00 0.00 0.00 0.00
0.00 0.00 0.00 0.00 0.00 0.00 0.00 0.00 0.00 0.00 0.00 0.00 0.00 0.00 0.00 0.00 0.00 0.00 0.00 0.00 0.00 0.00 0.00 0.00 0.00 0.00 0.00 0.00 0.00 0.00 0.00 0.00 0.00 0.00 0.00 0.00 0.00 0.00 0.00 0.00 0.00 0.00 0.00 0.00
0.00 0.00 0.00 0.00 0.00 0.00 0.00 0.00 0.00 0.00 0.00 0.00 0.00 0.00 0.00 0.00 0.00 0.00 0.00 0.00 0.00 0.00 0.00 0.00 0.00 0.00 0.00 0.00 0.00 0.00 0.00 0.00 0.00 0.00 0.00 0.00 0.00 0.00 0.00 0.00 0.00 0.00 0.00 0.00
0.00 0.00 0.00 0.00 0.00 0.00 0.00 0.00 0.00 0.00 0.00 0.00 0.00 0.00 0.00 0.00 0.00 0.00 0.00 0.00 0.00 0.00 0.00 0.00 0.00 0.00 0.00 0.00 0.00 0.00 0.00 0.00 0.00 0.00 0.00 0.00 0.00 0.00 0.00 0.00 0.00 0.00 0.00 0.00
0.00 0.00 0.00 0.00 0.00 0.00 0.00 0.00 0.00 0.00 0.00 0.00 0.00 0.00 0.00 0.00 0.00 0.00 0.00 0.00 0.00 0.00 0.00 0.00 0.00 0.00 0.00 0.00 0.00 0.00 0.00 0.00 0.00 0.00 0.00 0.00 0.00 0.00 0.00 0.00 0.00 0.00 0.00 0.00
0.00 0.00 0.00 0.00 0.00 0.00 0.00 0.00 0.00 0.00 0.00 0.00 0.00 0.00 0.00 0.00 0.00 0.00 0.00 0.00 0.00 0.00 0.00 0.00 0.00 0.00 0.00 0.00 0.00 0.00 0.00 0.00 0.00 0.00 0.00 0.00 0.00 0.00 0.00 0.01 0.00 0.00 0.00 0.00
0.00 0.00 0.00 0.00 0.00 0.00 0.00 0.00 0.00 0.00 0.00 0.00 0.00 0.00 0.00 0.00 0.00 0.00 0.00 0.00 0.00 0.00 0.00 0.00 0.00 0.00 0.00 0.00 0.00 0.00 0.00 0.00 0.00 0.00 0.00 0.00 0.01 0.01 0.01 0.01 0.01 0.00 0.00 0.00
0.00 0.00 0.00 0.00 0.00 0.00 0.00 0.00 0.00 0.00 0.00 0.00 0.00 0.00 0.00 0.00 0.00 0.00 0.00 0.00 0.00 0.00 0.00 0.00 0.00 0.00 0.00 0.00 0.00 0.00 0.00 0.00 0.00 0.00 0.00 0.01 0.01 0.01 0.01 0.01 0.01 0.01 0.00 0.00
0.00 0.00 0.00 0.00 0.00 0.00 0.00 0.00 0.00 0.00 0.00 0.00 0.00 0.00 0.00 0.00 0.00 0.00 0.00 0.00 0.00 0.00 0.00 0.00 0.00 0.00 0.00 0.00 0.00 0.00 0.00 0.00 0.00 0.00 0.01 0.01 0.01 0.01 0.01 0.01 0.01 0.01 0.00 0.00
0.00 0.00 0.00 0.00 0.00 0.00 0.00 0.00 0.00 0.00 0.00 0.00 0.00 0.00 0.00 0.00 0.00 0.00 0.00 0.00 0.00 0.00 0.00 0.00 0.00 0.00 0.00 0.00 0.00 0.00 0.00 0.00 0.00 0.01 0.01 0.01 0.02 0.02 0.02 0.02 0.01 0.01 0.01 0.00
MSLP
1021.26 1021.85 1022.40 1022.86 1023.24 1023.54 1023.75 1023.88 1023.94 1023.94 1023.88 1023.76 1023.59 1023.40 1023.21 1023.03 1022.91 1022.85 1022.87 1022.97 1023.15 1023.40 1023.70 1024.04 1024.41 1024.82 1025.26 1025.74 1026.25 1026.80 1027.38 1027.96 1028.52 1029.05 1029.50 1029.88 1030.16 1030.35 1030.45 1030.49 1030.49 1030.45 1030.39 1030.33
1021.55 1021.99 1022.36 1022.67 1022.92 1023.14 1023.34 1023.50 1023.63 1023.70 1023.69 1023.59 1023.39 1023.10 1022.77 1022.42 1022.11 1021.88 1021.77 1021.79 1021.93 1022.19 1022.53 1022.93 1023.37 1023.82 1024.30 1024.80 1025.34 1025.92 1026.54 1027.18 1027.83 1028.46 1029.02 1029.48 1029.83 1030.06 1030.18 1030.19 1030.15 1030.07 1029.98 1029.90
1021.69 1021.96 1022.17 1022.34 1022.51 1022.70 1022.91 1023.14 1023.35 1023.50 1023.54 1023.43 1023.16 1022.74 1022.22 1021.67 1021.14 1020.73 1020.47 1020.39 1020.51 1020.79 1021.20 1021.68 1022.20 1022.74 1023.27 1023.82 1024.40 1025.01 1025.68 1026.39 1027.12 1027.83 1028.48 1029.03 1029.45 1029.71 1029.84 1029.85 1029.77 1029.66 1029.54 1029.45
1021.69 1021.81 1021.89 1021.97 1022.10 1022.30 1022.58 1022.89 1023.20 1023.42 1023.49 1023.35 1022.98 1022.40 1021.67 1020.87 1020.10 1019.48 1019.06 1018.89 1018.98 1019.29 1019.77 1020.35 1020.98 1021.61 1022.23 1022.84 1023.46 1024.11 1024.81 1025.57 1026.35 1027.13 1027.85 1028.47 1028.94 1029.25 1029.40 1029.41 1029.33 1029.21 1029.08 1028.98
1021.62 1021.62 1021.61 1021.65 1021.78 1022.03 1022.40 1022.82 1023.23 1023.52 1023.60 1023.40 1022.91 1022.14 1021.16 1020.10 1019.09 1018.24 1017.66 1017.40 1017.46 1017.80 1018.36 1019.04 1019.78 1020.51 1021.21 1021.88 1022.54 1023.21 1023.94 1024.71 1025.53 1026.35 1027.12 1027.79 1028.31 1028.66 1028.85 1028.88 1028.81 1028.69 1028.57 1028.47
1021.55 1021.46 1021.41 1021.44 1021.61 1021.95 1022.42 1022.96 1023.46 1023.80 1023.86 1023.59 1022.95 1021.97 1020.75 1019.43 1018.18 1017.12 1016.39 1016.03 1016.06 1016.43 1017.06 1017.84 1018.68 1019.50 1020.27 1020.98 1021.66 1022.34 1023.06 1023.83 1024.65 1025.48 1026.27 1026.98 1027.55 1027.95 1028.18 1028.25 1028.22 1028.13 1028.02 1027.93
1021.52 1021.39 1021.32 1021.39 1021.63 1022.06 1022.63 1023.27 1023.83 1024.19 1024.22 1023.85 1023.05 1021.88 1020.44 1018.89 1017.41 1016.17 1015.30 1014.87 1014.87 1015.26 1015.94 1016.80 1017.71 1018.60 1019.42 1020.16 1020.84 1021.50 1022.19 1022.94 1023.73 1024.55 1025.35 1026.08 1026.69 1027.14 1027.42 1027.55 1027.57 1027.52 1027.44 1027.38
1021.55 1021.41 1021.36 1021.47 1021.79 1022.30 1022.95 1023.65 1024.24 1024.59 1024.56 1024.08 1023.14 1021.79 1020.17 1018.43 1016.79 1015.41 1014.44 1013.94 1013.92 1014.32 1015.04 1015.94 1016.90 1017.83 1018.68 1019.42 1020.08 1020.71 1021.36 1022.06 1022.81 1023.61 1024.40 1025.14 1025.78 1026.28 1026.62 1026.81 1026.89 1026.89 1026.86 1026.81
1021.62 1021.49 1021.48 1021.64 1022.01 1022.57 1023.26 1023.97 1024.54 1024.83 1024.73 1024.14 1023.08 1021.60 1019.84 1017.99 1016.25 1014.79 1013.76 1013.23 1013.19 1013.60 1014.33 1015.25 1016.23 1017.17 1018.01 1018.73 1019.37 1019.96 1020.56 1021.21 1021.92 1022.68 1023.46 1024.20 1024.87 1025.41 1025.80 1026.06 1026.20 1026.26 1026.27 1026.25
1021.68 1021.59 1021.62 1021.82 1022.20 1022.77 1023.43 1024.08 1024.58 1024.78 1024.57 1023.89 1022.73 1021.18 1019.37 1017.48 1015.71 1014.24 1013.21 1012.67 1012.64 1013.03 1013.75 1014.66 1015.63 1016.55 1017.37 1018.07 1018.68 1019.24 1019.80 1020.40 1021.07 1021.80 1022.56 1023.31 1023.99 1024.56 1025.00 1025.32 1025.51 1025.62 1025.66 1025.67
1021.70 1021.65 1021.70 1021.90 1022.27 1022.77 1023.34 1023.87 1024.23 1024.30 1023.98 1023.21 1022.00 1020.44 1018.65 1016.81 1015.10 1013.70 1012.71 1012.20 1012.17 1012.55 1013.24 1014.11 1015.03 1015.91 1016.70 1017.38 1017.96 1018.50 1019.04 1019.62 1020.27 1020.99 1021.73 1022.47 1023.16 1023.76 1024.23 1024.58 1024.81 1024.95 1025.02 1025.05
1021.65 1021.64 1021.70 1021.87 1022.15 1022.53 1022.94 1023.29 1023.47 1023.38 1022.93 1022.09 1020.88 1019.37 1017.68 1015.96 1014.38 1013.09 1012.20 1011.74 1011.72 1012.08 1012.71 1013.52 1014.38 1015.20 1015.95 1016.60 1017.17 1017.71 1018.26 1018.84 1019.50 1020.21 1020.95 1021.69 1022.38 1022.98 1023.47 1023.83 1024.09 1024.25 1024.33 1024.36
1021.54 1021.56 1021.61 1021.70 1021.86 1022.07 1022.26 1022.38 1022.35 1022.07 1021.50 1020.62 1019.43 1018.02 1016.48 1014.95 1013.56 1012.43 1011.65 1011.26 1011.25 1011.57 1012.14 1012.85 1013.62 1014.38 1015.07 1015.70 1016.28 1016.84 1017.41 1018.03 1018.71 1019.44 1020.19 1020.92 1021.61 1022.21 1022.70 1023.07 1023.33 1023.49 1023.58 1023.60
1021.44 1021.46 1021.47 1021.46 1021.46 1021.44 1021.39 1021.25 1020.97 1020.51 1019.83 1018.91 1017.79 1016.51 1015.16 1013.85 1012.68 1011.74 1011.09 1010.77 1010.75 1011.02 1011.49 1012.09 1012.76 1013.43 1014.07 1014.69 1015.28 1015.87 1016.49 1017.16 1017.88 1018.64 1019.40 1020.15 1020.83 1021.42 1021.91 1022.28 1022.54 1022.70 1022.78 1022.80
1021.39 1021.40 1021.34 1021.21 1021.02 1020.76 1020.44 1020.03 1019.52 1018.87 1018.08 1017.15 1016.11 1014.99 1013.85 1012.77 1011.82 1011.07 1010.54 1010.27 1010.25 1010.44 1010.80 1011.27 1011.82 1012.39 1012.98 1013.58 1014.18 1014.82 1015.49 1016.22 1016.99 1017.78 1018.57 1019.32 1020.01 1020.60 1021.08 1021.45 1021.71 1021.88 1021.97 1021.99
1021.44 1021.41 1021.26 1020.99 1020.60 1020.11 1019.53 1018.87 1018.13 1017.31 1016.44 1015.51 1014.55 1013.59 1012.66 1011.81 1011.07 1010.48 1010.07 1009.83 1009.77 1009.87 1010.10 1010.44 1010.85 1011.33 1011.85 1012.41 1013.03 1013.70 1014.43 1015.22 1016.03 1016.86 1017.68 1018.45 1019.14 1019.74 1020.23 1020.61 1020.89 1021.07 1021.18 1021.21
1021.57 1021.49 1021.24 1020.82 1020.25 1019.54 1018.73 1017.84 1016.90 1015.96 1015.02 1014.11 1013.24 1012.42 1011.68 1011.03 1010.47 1010.02 1009.68 1009.45 1009.34 1009.34 1009.44 1009.64 1009.92 1010.29 1010.73 1011.27 1011.88 1012.58 1013.35 1014.17 1015.03 1015.89 1016.73 1017.51 1018.22 1018.83 1019.34 1019.75 1020.06 1020.29 1020.42 1020.48
1021.71 1021.56 1021.21 1020.66 1019.93 1019.03 1018.03 1016.96 1015.89 1014.84 1013.87 1012.98 1012.20 1011.52 1010.93 1010.44 1010.02 1009.67 1009.38 1009.14 1008.98 1008.87 1008.85 1008.91 1009.07 1009.33 1009.70 1010.20 1010.80 1011.50 1012.29 1013.13 1014.01 1014.88 1015.73 1016.53 1017.25 1017.89 1018.44 1018.89 1019.25 1019.53 1019.72 1019.81
1021.74 1021.51 1021.07 1020.40 1019.54 1018.51 1017.37 1016.19 1015.02 1013.93 1012.95 1012.10 1011.40 1010.83 1010.37 1009.99 1009.67 1009.39 1009.12 1008.87 1008.64 1008.45 1008.31 1008.26 1008.31 1008.49 1008.79 1009.24 1009.81 1010.50 1011.28 1012.13 1013.00 1013.87 1014.72 1015.52 1016.25 1016.92 1017.51 1018.02 1018.44 1018.78 1019.03 1019.18
1021.52 1021.21 1020.67 1019.92 1018.97 1017.86 1016.65 1015.42 1014.22 1013.13 1012.17 1011.38 1010.75 1010.27 1009.90 1009.61 1009.37 1009.12 1008.86 1008.59 1008.31 1008.04 1007.82 1007.68 1007.65 1007.75 1008.00 1008.40 1008.94 1009.60 1010.35 1011.17 1012.02 1012.86 1013.69 1014.48 1015.23 1015.92 1016.54 1017.11 1017.60 1018.01 1018.32 1018.53
1020.96 1020.55 1019.94 1019.12 1018.12 1016.99 1015.78 1014.55 1013.38 1012.33 1011.44 1010.72 1010.17 1009.76 1009.47 1009.24 1009.02 1008.80 1008.54 1008.25 1007.93 1007.61 1007.33 1007.13 1007.05 1007.10 1007.30 1007.66 1008.16 1008.78 1009.49 1010.26 1011.06 1011.87 1012.67 1013.44 1014.18 1014.88 1015.54 1016.15 1016.70 1017.17 1017.55 1017.81
1019.99 1019.49 1018.81 1017.96 1016.96 1015.85 1014.69 1013.53 1012.45 1011.49 1010.69 1010.05 1009.58 1009.25 1009.00 1008.81 1008.62 1008.40 1008.13 1007.82 1007.47 1007.13 1006.82 1006.58 1006.47 1006.49 1006.66 1006.98 1007.44 1008.01 1008.67 1009.39 1010.14 1010.89 1011.65 1012.39 1013.11 1013.82 1014.50 1015.14 1015.73 1016.25 1016.67 1016.98
1018.67 1018.08 1017.35 1016.49 1015.52 1014.48 1013.42 1012.39 1011.43 1010.60 1009.92 1009.38 1008.99 1008.72 1008.51 1008.34 1008.16 1007.93 1007.65 1007.32 1006.96 1006.59 1006.26 1006.02 1005.88 1005.88 1006.02 1006.31 1006.73 1007.25 1007.86 1008.52 1009.21 1009.92 1010.63 1011.34 1012.04 1012.74 1013.42 1014.08 1014.69 1015.24 1015.70 1016.04
1017.12 1016.44 1015.67 1014.83 1013.93 1013.00 1012.07 1011.19 1010.40 1009.72 1009.17 1008.75 1008.45 1008.22 1008.05 1007.88 1007.69 1007.45 1007.15 1006.80 1006.42 1006.03 1005.69 1005.43 1005.27 1005.24 1005.36 1005.61 1005.98 1006.46 1007.02 1007.63 1008.27 1008.94 1009.61 1010.29 1010.97 1011.66 1012.34 1013.00 1013.62 1014.18 1014.65 1015.02
1015.50 1014.75 1013.97 1013.16 1012.35 1011.55 1010.79 1010.10 1009.48 1008.97 1008.56 1008.26 1008.02 1007.85 1007.69 1007.52 1007.30 1007.03 1006.70 1006.32 1005.91 1005.50 1005.13 1004.84 1004.65 1004.59 1004.66 1004.87 1005.20 1005.63 1006.14 1006.71 1007.32 1007.95 1008.61 1009.27 1009.94 1010.61 1011.28 1011.93 1012.55 1013.11 1013.59 1013.97
1014.00 1013.20 1012.42 1011.68 1010.98 1010.34 1009.75 1009.24 1008.81 1008.46 1008.19 1007.97 1007.81 1007.66 1007.51 1007.32 1007.07 1006.76 1006.38 1005.95 1005.49 1005.04 1004.62 1004.28 1004.04 1003.93 1003.94 1004.09 1004.37 1004.75 1005.22 1005.76 1006.35 1006.98 1007.63 1008.29 1008.96 1009.63 1010.29 1010.93 1011.54 1012.09 1012.57 1012.96
Thickness
5704 5689 5681 5682 5680 5685 5684 5679 5675 5679 5676 5665 5662 5671 5683 5675 5666 5663 5656 5653 5652 5655 5650 5640 5632 5622 5611 5602 5593 5584 5574 5565 5554 5543 5531 5521 5511 5502 5493 5483 5473 5462 5451 5439
5689 5683 5692 5694 5691 5687 5684 5678 5676 5677 5675 5667 5663 5670 5686 5684 5676 5675 5672 5665 5661 5656 5647 5641 5632 5622 5614 5605 5595 5585 5575 5564 5554 5543 5531 5519 5508 5497 5486 5475 5464 5453 5441 5429
5686 5691 5698 5693 5688 5684 5681 5676 5675 5674 5673 5669 5663 5669 5686 5693 5683 5679 5675 5672 5667 5663 5656 5648 5638 5626 5616 5608 5598 5589 5576 5565 5553 5541 5527 5514 5501 5489 5478 5467 5456 5444 5431 5418
5690 5693 5692 5686 5683 5682 5672 5677 5675 5671 5661 5651 5659 5649 5677 5688 5685 5682 5678 5672 5671 5668 5663 5655 5645 5633 5623 5614 5601 5589 5576 5564 5551 5538 5525 5511 5497 5483 5473 5460 5448 5435 5422 5408
5685 5687 5684 5679 5681 5681 5676 5675 5670 5665 5656 5648 5649 5644 5670 5682 5681 5688 5687 5681 5679 5675 5667 5661 5654 5643 5630 5615 5601 5588 5575 5562 5549 5536 5523 5508 5494 5481 5467 5454 5440 5426 5413 5398
5684 5688 5685 5682 5681 5679 5673 5665 5658 5645 5639 5637 5648 5640 5658 5674 5686 5694 5695 5690 5686 5680 5671 5664 5655 5642 5628 5612 5598 5585 5573 5560 5547 5533 5520 5506 5491 5476 5461 5447 5432 5419 5404 5390
5675 5678 5681 5680 5672 5667 5663 5647 5638 5640 5629 5637 5653 5647 5669 5694 5694 5697 5700 5696 5690 5682 5671 5661 5650 5639 5626 5611 5598 5584 5572 5559 5545 5531 5518 5504 5489 5474 5458 5443 5428 5412 5397 5382
5659 5660 5671 5671 5667 5659 5653 5646 5633 5630 5627 5634 5650 5649 5682 5700 5699 5697 5696 5694 5689 5679 5669 5662 5654 5642 5629 5613 5598 5584 5571 5559 5544 5530 5516 5502 5487 5471 5456 5441 5425 5409 5393 5378
5655 5658 5669 5668 5667 5661 5653 5643 5640 5627 5625 5621 5634 5652 5678 5698 5697 5694 5691 5687 5682 5677 5669 5661 5651 5639 5627 5612 5599 5586 5572 5558 5543 5529 5514 5499 5484 5469 5453 5437 5421 5405 5389 5373
5661 5652 5661 5660 5658 5656 5652 5643 5626 5620 5615 5613 5626 5640 5664 5690 5689 5687 5682 5678 5677 5673 5664 5656 5646 5636 5624 5611 5597 5582 5570 5557 5542 5527 5512 5498 5482 5467 5451 5434 5417 5401 5385 5369
5658 5646 5650 5649 5644 5645 5639 5636 5630 5617 5610 5604 5609 5647 5681 5686 5689 5684 5684 5681 5676 5671 5665 5657 5647 5634 5619 5603 5590 5577 5565 5552 5538 5524 5509 5495 5480 5464 5447 5431 5415 5399 5382 5366
5649 5635 5634 5643 5650 5647 5640 5638 5627 5618 5616 5604 5597 5645 5692 5684 5682 5677 5677 5676 5673 5669 5663 5654 5642 5626 5611 5598 5586 5574 5562 5549 5537 5522 5507 5492 5476 5460 5444 5428 5412 5396 5379 5363
5640 5630 5628 5639 5640 5639 5636 5634 5628 5623 5612 5599 5596 5645 5687 5682 5677 5672 5667 5667 5665 5662 5656 5645 5631 5619 5608 5596 5583 5571 5560 5548 5534 5519 5504 5488 5473 5457 5441 5425 5409 5393 5377 5361
5635 5625 5625 5631 5638 5636 5631 5632 5627 5617 5607 5604 5616 5648 5678 5679 5670 5666 5662 5659 5657 5654 5647 5636 5625 5615 5604 5593 5581 5570 5558 5545 5531 5516 5501 5487 5472 5456 5439 5423 5406 5391 5375 5359
5624 5617 5619 5626 5631 5627 5626 5629 5627 5620 5624 5620 5639 5645 5669 5678 5663 5658 5657 5654 5650 5647 5640 5630 5621 5612 5600 5588 5578 5568 5556 5543 5529 5514 5499 5486 5470 5453 5436 5420 5404 5388 5372 5358
5610 5609 5612 5617 5626 5619 5616 5628 5632 5630 5628 5629 5636 5646 5672 5665 5655 5648 5647 5644 5643 5641 5637 5629 5619 5608 5598 5588 5578 5566 5554 5540 5525 5511 5497 5482 5465 5449 5433 5418 5401 5385 5370 5356
5600 5597 5597 5599 5612 5612 5612 5638 5639 5632 5631 5629 5630 5647 5658 5649 5645 5642 5642 5639 5635 5635 5632 5626 5618 5609 5601 5591 5579 5566 5553 5537 5521 5508 5494 5478 5462 5446 5431 5415 5399 5384 5369 5354
5599 5592 5583 5580 5596 5592 5637 5647 5642 5635 5638 5634 5635 5643 5643 5640 5638 5636 5634 5631 5629 5628 5625 5621 5614 5606 5599 5589 5574 5561 5546 5531 5518 5504 5490 5475 5459 5444 5428 5412 5397 5382 5367 5353
5597 5591 5578 5568 5573 5593 5619 5637 5632 5623 5629 5639 5631 5636 5636 5629 5625 5629 5634 5628 5623 5621 5618 5614 5608 5601 5592 5580 5567 5551 5537 5524 5511 5500 5487 5472 5457 5441 5425 5410 5396 5381 5366 5353
5580 5580 5571 5558 5557 5576 5620 5633 5629 5619 5614 5634 5625 5621 5618 5610 5602 5614 5624 5621 5616 5612 5607 5603 5598 5590 5582 5572 5557 5543 5532 5519 5510 5501 5486 5470 5454 5439 5424 5410 5395 5380 5366 5353
5560 5556 5553 5555 5551 5582 5613 5616 5611 5597 5608 5619 5616 5610 5604 5594 5596 5604 5607 5605 5603 5599 5596 5592 5585 5578 5573 5561 5546 5536 5528 5520 5512 5498 5481 5465 5450 5436 5422 5406 5392 5378 5365 5352
5561 5545 5540 5542 5537 5571 5607 5597 5595 5603 5606 5603 5602 5601 5595 5590 5591 5592 5592 5592 5589 5586 5585 5580 5573 5570 5563 5549 5537 5531 5526 5520 5503 5488 5474 5459 5445 5431 5418 5403 5390 5376 5364 5350
5561 5569 5567 5563 5581 5596 5591 5591 5595 5590 5586 5587 5585 5586 5582 5578 5581 5582 5581 5581 5579 5576 5573 5569 5562 5558 5551 5540 5532 5527 5524 5509 5494 5480 5467 5454 5440 5426 5415 5401 5388 5375 5362 5350
5563 5562 5556 5556 5571 5580 5582 5579 5580 5578 5574 5575 5574 5573 5571 5568 5571 5571 5571 5570 5568 5567 5563 5557 5550 5546 5544 5535 5525 5523 5514 5501 5488 5475 5463 5449 5436 5423 5410 5399 5388 5375 5364 5351
5561 5560 5552 5556 5565 5565 5571 5570 5570 5569 5567 5565 5565 5564 5562 5559 5559 5560 5560 5559 5557 5552 5550 5545 5539 5538 5538 5530 5521 5514 5504 5492 5480 5469 5458 5446 5434 5422 5409 5398 5388 5377 5366 5354
5559 5553 5549 5559 5563 5556 5561 5561 5559 5556 5556 5555 5553 5553 5552 5548 5547 5547 5546 5544 5541 5538 5537 5533 5530 5528 5529 5523 5516 5507 5497 5486 5475 5464 5453 5442 5431 5419 5408 5396 5385 5376 5366 5356